• In Russia
  • List of Countries
  • For 7 days
  • Water Temperature
  • Weather Map
  • Weather Widgets
  • user-avatar
    Login

    Hourly Weather Rychwaldek

    Today, 16 October, Wednesday

    Time Temperature Precipitation Wind Pressure Humidity
    00:00 +13°C° 0 mm 2 mps 718 mmHg 85%
    01:00 +12°C° 0 mm 2 mps 718 mmHg 87%
    02:00 +12°C° 0 mm 2 mps 718 mmHg 86%
    03:00 +12°C° 0 mm 2 mps 718 mmHg 86%
    04:00 +12°C° 0 mm 2 mps 718 mmHg 85%
    05:00 +12°C° 0 mm 2 mps 718 mmHg 84%
    06:00 +12°C° 0 mm 2 mps 718 mmHg 83%
    07:00 +12°C° 0 mm 3 mps 719 mmHg 82%
    08:00 +13°C° 0 mm 3 mps 719 mmHg 79%
    09:00 +16°C° 0 mm 3 mps 720 mmHg 76%
    10:00 +17°C° 0 mm 3 mps 720 mmHg 72%
    11:00 +16°C° 0.1 mm 3 mps 720 mmHg 76%
    12:00 +16°C° 0.1 mm 3 mps 721 mmHg 79%
    13:00 +14°C° 0.1 mm 3 mps 721 mmHg 82%
    14:00 +14°C° 0 mm 3 mps 721 mmHg 84%
    15:00 +15°C° 0 mm 2 mps 721 mmHg 85%
    16:00 +14°C° 0 mm 2 mps 721 mmHg 87%
    17:00 +13°C° 0 mm 2 mps 721 mmHg 89%
    18:00 +12°C° 0 mm 2 mps 722 mmHg 91%
    19:00 +10°C° 0 mm 2 mps 722 mmHg 93%
    20:00 +10°C° 0 mm 2 mps 722 mmHg 93%
    21:00 +9°C° 0 mm 2 mps 722 mmHg 92%
    22:00 +9°C° 0 mm 2 mps 723 mmHg 92%
    23:00 +9°C° 0 mm 2 mps 723 mmHg 91%

    Tomorrow, 17 October, Thursday

    Time Temperature Precipitation Wind Pressure Humidity
    00:00 +8°C° 0 mm 2 mps 723 mmHg 90%
    01:00 +8°C° 0 mm 2 mps 723 mmHg 89%
    02:00 +8°C° 0 mm 2 mps 723 mmHg 87%
    03:00 +8°C° 0 mm 2 mps 723 mmHg 85%
    04:00 +8°C° 0 mm 2 mps 723 mmHg 83%
    05:00 +8°C° 0 mm 2 mps 723 mmHg 81%
    06:00 +9°C° 0 mm 1 mps 723 mmHg 78%
    07:00 +10°C° 0 mm 1 mps 723 mmHg 75%
    08:00 +12°C° 0 mm 1 mps 723 mmHg 67%
    09:00 +14°C° 0 mm 1 mps 724 mmHg 59%
    10:00 +18°C° 0 mm 1 mps 724 mmHg 51%
    11:00 +19°C° 0 mm 1 mps 724 mmHg 49%
    12:00 +20°C° 0 mm 1 mps 724 mmHg 47%
    13:00 +20°C° 0 mm 1 mps 724 mmHg 45%
    14:00 +19°C° 0 mm 1 mps 724 mmHg 51%
    15:00 +18°C° 0 mm 1 mps 723 mmHg 56%
    16:00 +15°C° 0 mm 0 mps 723 mmHg 62%
    17:00 +15°C° 0 mm 1 mps 723 mmHg 65%
    18:00 +14°C° 0 mm 1 mps 723 mmHg 67%
    19:00 +13°C° 0 mm 1 mps 723 mmHg 70%
    20:00 +13°C° 0 mm 1 mps 723 mmHg 70%
    21:00 +13°C° 0 mm 1 mps 723 mmHg 70%
    22:00 +13°C° 0 mm 1 mps 723 mmHg 70%
    23:00 +12°C° 0 mm 1 mps 723 mmHg 72%

    Day after tomorrow, 18 October, Friday

    Time Temperature Precipitation Wind Pressure Humidity
    00:00 +12°C° 0 mm 1 mps 723 mmHg 74%
    01:00 +11°C° 0 mm 1 mps 723 mmHg 76%
    02:00 +11°C° 0 mm 1 mps 723 mmHg 77%
    03:00 +11°C° 0 mm 1 mps 723 mmHg 78%
    04:00 +11°C° 0 mm 1 mps 723 mmHg 79%
    05:00 +11°C° 0 mm 1 mps 723 mmHg 79%
    06:00 +12°C° 0 mm 1 mps 723 mmHg 79%
    07:00 +12°C° 0 mm 1 mps 723 mmHg 79%
    08:00 +14°C° 0 mm 1 mps 723 mmHg 73%
    09:00 +16°C° 0 mm 1 mps 723 mmHg 68%
    10:00 +19°C° 0 mm 1 mps 723 mmHg 62%
    11:00 +19°C° 0 mm 1 mps 723 mmHg 59%
    12:00 +20°C° 0 mm 1 mps 723 mmHg 57%
    13:00 +21°C° 0 mm 1 mps 723 mmHg 54%
    14:00 +20°C° 0 mm 1 mps 722 mmHg 59%
    15:00 +19°C° 0 mm 1 mps 722 mmHg 64%
    16:00 +18°C° 0 mm 1 mps 722 mmHg 69%
    17:00 +15°C° 0 mm 1 mps 722 mmHg 72%
    18:00 +14°C° 0 mm 1 mps 722 mmHg 75%
    19:00 +13°C° 0 mm 1 mps 721 mmHg 78%
    20:00 +13°C° 0 mm 1 mps 721 mmHg 79%
    21:00 +13°C° 0 mm 1 mps 722 mmHg 80%
    22:00 +13°C° 0 mm 1 mps 722 mmHg 80%
    23:00 +12°C° 0 mm 1 mps 721 mmHg 81%

    19 October, Saturday

    Time Temperature Precipitation Wind Pressure Humidity
    00:00 +12°C° 0 mm 1 mps 721 mmHg 83%
    01:00 +12°C° 0 mm 1 mps 721 mmHg 84%
    02:00 +12°C° 0 mm 1 mps 721 mmHg 83%
    03:00 +13°C° 0 mm 1 mps 721 mmHg 82%
    04:00 +13°C° 0 mm 1 mps 721 mmHg 81%
    05:00 +13°C° 0 mm 1 mps 721 mmHg 81%
    06:00 +13°C° 0 mm 1 mps 721 mmHg 81%
    07:00 +13°C° 0 mm 1 mps 720 mmHg 81%
    08:00 +15°C° 0 mm 1 mps 721 mmHg 75%
    09:00 +16°C° 0 mm 1 mps 721 mmHg 69%
    10:00 +18°C° 0 mm 2 mps 721 mmHg 64%
    11:00 +18°C° 0 mm 2 mps 721 mmHg 62%
    12:00 +18°C° 0 mm 2 mps 721 mmHg 61%
    13:00 +19°C° 0 mm 2 mps 720 mmHg 60%
    14:00 +18°C° 0 mm 2 mps 720 mmHg 64%
    15:00 +18°C° 0 mm 1 mps 720 mmHg 68%
    16:00 +16°C° 0 mm 1 mps 720 mmHg 72%
    17:00 +15°C° 0 mm 1 mps 720 mmHg 75%
    18:00 +14°C° 0 mm 1 mps 720 mmHg 79%
    19:00 +13°C° 0 mm 1 mps 720 mmHg 82%
    20:00 +13°C° 0 mm 1 mps 720 mmHg 81%
    21:00 +12°C° 0 mm 1 mps 720 mmHg 81%
    22:00 +12°C° 0 mm 2 mps 720 mmHg 81%
    23:00 +12°C° 0 mm 2 mps 719 mmHg 81%

    20 October, Sunday

    Time Temperature Precipitation Wind Pressure Humidity
    00:00 +12°C° 0 mm 2 mps 719 mmHg 82%
    01:00 +10°C° 0 mm 2 mps 719 mmHg 82%
    02:00 +10°C° 0 mm 2 mps 719 mmHg 83%
    03:00 +10°C° 0 mm 2 mps 719 mmHg 84%
    04:00 +10°C° 0 mm 2 mps 719 mmHg 85%
    05:00 +11°C° 0 mm 1 mps 719 mmHg 85%
    06:00 +11°C° 0 mm 1 mps 720 mmHg 85%
    07:00 +11°C° 0 mm 1 mps 720 mmHg 85%
    08:00 +13°C° 0 mm 2 mps 720 mmHg 78%
    09:00 +15°C° 0 mm 2 mps 721 mmHg 72%
    10:00 +17°C° 0 mm 2 mps 721 mmHg 65%
    11:00 +18°C° 0 mm 3 mps 721 mmHg 63%
    12:00 +19°C° 0 mm 3 mps 721 mmHg 62%
    13:00 +19°C° 0 mm 3 mps 722 mmHg 60%
    14:00 +18°C° 0 mm 3 mps 722 mmHg 65%
    15:00 +17°C° 0 mm 2 mps 722 mmHg 70%
    16:00 +16°C° 0 mm 2 mps 722 mmHg 75%
    17:00 +15°C° 0 mm 1 mps 722 mmHg 79%
    18:00 +14°C° 0 mm 1 mps 722 mmHg 83%
    19:00 +13°C° 0 mm 1 mps 723 mmHg 88%
    20:00 +13°C° 0 mm 1 mps 723 mmHg 86%
    21:00 +14°C° 0 mm 1 mps 723 mmHg 85%
    22:00 +14°C° 0 mm 1 mps 724 mmHg 84%
    23:00 +13°C° 0 mm 1 mps 724 mmHg 86%

    21 October, Monday

    Time Temperature Precipitation Wind Pressure Humidity
    00:00 +13°C° 0 mm 1 mps 724 mmHg 87%
    01:00 +12°C° 0 mm 1 mps 724 mmHg 89%
    02:00 +12°C° 0 mm 1 mps 724 mmHg 89%
    03:00 +12°C° 0 mm 1 mps 724 mmHg 89%
    04:00 +12°C° 0 mm 1 mps 724 mmHg 90%
    05:00 +12°C° 0 mm 1 mps 724 mmHg 89%
    06:00 +12°C° 0 mm 1 mps 724 mmHg 88%
    07:00 +12°C° 0 mm 1 mps 724 mmHg 88%
    08:00 +15°C° 0 mm 1 mps 725 mmHg 80%
    09:00 +18°C° 0 mm 1 mps 725 mmHg 73%
    10:00 +20°C° 0 mm 1 mps 725 mmHg 65%
    11:00 +21°C° 0 mm 1 mps 725 mmHg 62%
    12:00 +22°C° 0 mm 1 mps 725 mmHg 59%
    13:00 +22°C° 0 mm 1 mps 725 mmHg 55%
    14:00 +21°C° 0 mm 1 mps 725 mmHg 61%
    15:00 +20°C° 0 mm 1 mps 725 mmHg 66%
    16:00 +19°C° 0 mm 1 mps 725 mmHg 71%
    17:00 +18°C° 0 mm 1 mps 725 mmHg 74%
    18:00 +16°C° 0 mm 1 mps 725 mmHg 76%
    19:00 +15°C° 0 mm 1 mps 725 mmHg 79%
    20:00 +14°C° 0 mm 1 mps 725 mmHg 78%
    21:00 +14°C° 0 mm 1 mps 725 mmHg 77%
    22:00 +14°C° 0 mm 1 mps 725 mmHg 76%
    23:00 +13°C° 0 mm 1 mps 725 mmHg 75%
    Show more